Location: Neuvy Saint Sepulchre
(46.5953°N, 1.8122°E)
Time: 19:57:51
(UTC+01:00)

ISS - Pass Details

Date: 25 November 2021
Orbit: 417 x 422 km, 51.6° (Epoch: 06 December)

Event Time Altitude Azimuth Distance (km) Brightness Sun altitude
Rises 18:34:31 0° 259° (WSW) 2,372 2.0 -14.1°
Reaches altitude 10° 18:36:39 10° 264° (W) 1,509 0.4 -14.5°
Maximum altitude 18:39:58 51° 342° (NNW) 542 -3.2 -15.0°
Enters shadow 18:41:21 29° 43° (NE) 801 -2.8 -15.3°
